Regional Weather Roundup
Issued by NWS

Home | Current Version | Previous Version | Text Only | Print | Product List | Glossary Off
Versions: 1 2 3 4 5 6 7 8 9 10 11 12 13 14 15 16 17 18 19 20 21 22 23 24 25 26 27 28 29 30 31 32 33 34 35 36 37 38 39 40 41 42 43 44 45 46 47 48 49 50

000
ASUS43 KIND 041409
RWRIN

WEATHER ROUNDUP FOR INDIANA
NATIONAL WEATHER SERVICE INDIANAPOLIS IN
1000 AM EDT SAT JUL 04 2015

NOTE: "FAIR" INDICATES FEW OR NO CLOUDS BELOW 12,000 FEET WITH NO
SIGNIFICANT WEATHER AND/OR OBSTRUCTIONS TO VISIBILITY.

* - STATION DOES NOT REPORT WEATHER SUCH AS PRECIPITATION OR FOG.

+ - STATION NOT QUALITY CONTROLLED BY THE NATIONAL WEATHER SERVICE.
    USE DATA WITH CAUTION...ESPECIALLY DEWPOINT AND RELATIVE
    HUMIDITY OBSERVATIONS.

INZ001>003-010>013-019-020-041500-
NORTHWEST INDIANA

CITY           SKY/WX    TMP DP  RH WIND       PRES   REMARKS
GARY /AIRPORT/ SUNNY    N/A N/A N/A MISG      30.00S HAZE
KNOX *+        SUNNY     64  57  77 CALM      30.01R
LA PORTE +     SUNNY     69  58  70 CALM      30.01S
MICHIGAN CITY+ SUNNY     66  59  77 CALM      30.01S
MONTICELLO +   SUNNY     66  60  81 CALM      30.01R
RENSSELAER +   SUNNY     66  61  82 CALM      30.02R
VALPARAISO     SUNNY     68  59  73 CALM      30.01S

$$

LMZ046-743>745-041500-
SOUTHERN LAKE MICHIGAN

STATION/POSITION TIME  TEMP    WIND        PRES    WAVE
                       AIR SEA DIR/SP/G            HT
                 (UTC) (F)     (DEG/KT/KT) (MB)    (FT)
BURNS HARBOR     1400   67     240/  3/  4 1016.6S
MICHIGAN CITY    1400   65     200/  3/  3   N/A
5NW MICH CITY    1400   63 64  200/  4/  4   N/A     0

$$

INZ004-005-014>016-021>024-041500-
NORTH CENTRAL INDIANA

CITY           SKY/WX    TMP DP  RH WIND       PRES   REMARKS
ELKHART        SUNNY     66  57  72 CALM      30.01S
GOSHEN         SUNNY     67  60  78 CALM      30.01R
LOGANSPORT +   SUNNY     66  55  68 CALM      30.03R
PERU/GRISSOM   SUNNY     69  61  76 VRB1      30.01R
ROCHESTER +    SUNNY     68  61  77 CALM      30.02S
SOUTH BEND     SUNNY     68  56  65 CALM      30.01R
WARSAW +         N/A     64  59  82 CALM      30.02R

$$

INZ006>009-017-018-025>027-041500-
NORTHEAST INDIANA

CITY           SKY/WX    TMP DP  RH WIND       PRES   REMARKS
ANGOLA *+        N/A     68  61  77 NW3       30.00S
AUBURN +       SUNNY     68  57  68 CALM      30.02S
FORT WAYNE     SUNNY     68  60  75 SW3       30.02R
HUNTINGTON +   SUNNY     69  62  80 CALM      30.01R

$$

INZ028-029-035-036-043>045-051>053-041500-
WEST CENTRAL INDIANA

CITY           SKY/WX    TMP DP  RH WIND       PRES   REMARKS
CRAWFORDSVL +  SUNNY     68  61  79 CALM      30.03R
GREENCASTLE +  SUNNY     70  59  68 CALM      30.03R
LAFAYETTE      SUNNY     67  60  78 CALM      30.01R
TERRE HAUTE    SUNNY     72  63  73 NE3       30.02R

$$

INZ030>032-037>040-046>048-054>057-064-065-041500-
CENTRAL INDIANA

CITY           SKY/WX    TMP DP  RH WIND       PRES   REMARKS
CP ATTERBURY + SUNNY     72  63  73 NE3       30.02R HAZE
COLUMBUS       CLOUDY    70  61  73 N3        30.02R
FISHERS *+     SUNNY     70  64  83 CALM      30.02R
FRANKFORT +    SUNNY     69  65  85 CALM      30.03S
GREENWOOD *+   SUNNY     72  59  64 CALM      30.03R
INDIANAPOLIS   SUNNY     72  59  63 CALM      30.00R
-EAGLE CREEK   SUNNY     71  61  70 CALM      30.01R
KOKOMO *+      SUNNY     72  61  68 CALM      30.01S
MARION +       SUNNY     68  61  78 CALM      30.02S
MT COMFORT *+  SUNNY     72  57  60 SE3       30.02R
SHELBYVILLE    SUNNY     72  62  71 CALM      30.01R
ZIONSVILLE +   SUNNY     70  62  75 CALM      30.03R

$$

INZ033-034-041-042-049-050-058-059-041500-
EAST CENTRAL INDIANA

CITY           SKY/WX    TMP DP  RH WIND       PRES   REMARKS
MUNCIE         SUNNY     71  59  65 CALM      30.02R

$$

INZ060-061-067>069-081>083-085>088-041500-
SOUTHWEST INDIANA

CITY           SKY/WX    TMP DP  RH WIND       PRES   REMARKS
EVANSVILLE     SUNNY     74  66  76 N6        30.01R
HUNTINGBURG *+ MOSUNNY   72  66  83 CALM      30.01R
WASHINGTON +   SUNNY     69  65  88 CALM      30.00S FOG

$$

INZ062-063-066-070>080-084-089>092-041500-
SOUTH CENTRAL AND SOUTHEAST INDIANA

CITY           SKY/WX    TMP DP  RH WIND       PRES   REMARKS
BLOOMINGTON    PTSUNNY   73  63  70 NE6       30.01R
MADISON *+     CLOUDY    72  63  73 CALM      30.03R
NORTH VERNON + CLOUDY    72  68  88 CALM      30.02R
SEYMOUR +      CLOUDY    70  66  88 CALM      30.01R FOG

$$




USA.gov is the U.S. government's official web portal to all federal, state and local government web resources and services.